Flag for U.S.A. Weather past 2 weeks in Racine, Wisconsin, U.S.A.

Now
64 °F

Overcast.


Feels Like: 64 °F
Forecast: 64 / 70 °F
Wind: 6 mph from Northeast

Location: Batten International Airport

Current Time: Aug 28, 2015 at 11:09:13 PM

Latest Report: Aug 28, 2015 at 9:53 PM


Visibility: 7 mi

Pressure: 30.11 "Hg

Humidity: 87%

Dew point: 60 °F

Location of RacineLocation

Historic Weather in Racine — Graph

°F

Racine temperature yesterday

Maximum temperature yesterday: 71 °F (at 2:53 PM)
Minimum temperature yesterday: 51 °F (at 3:53 AM)
Average temperature yesterday: 61 °F

Past Weeks' High & Low Weather Summary

 TemperatureHumidityPressure
High91 °F (Aug 14, 3:53 PM)94% (Aug 15, 4:53 AM)30.24 "Hg (Aug 15, 4:53 AM)
Low51 °F (Aug 27, 3:53 AM)42% (Aug 24, 12:53 PM)29.61 "Hg (Aug 19, 8:53 AM)
Average69 °F70%29.99 "Hg
* Reported Aug 13 9:53 PM — Aug 28 9:53 PM, Racine, Weather by CustomWeather, © 2015

Note: Actual official high and low records may vary slightly from our data, if they occured in-between our weather recording intervals... More about our weather records

Advertising

Racine weather history for previous 24 hours

 ConditionsComfort  
Time TempWeatherWind HumidityBarometerVisibility
9:53 PM
Fri, Aug 28
64 °FOvercast.6 mph87%30.11 "Hg7 mi
8:53 PM64 °FFog.No wind90%30.10 "Hg6 mi
7:53 PM64 °FFog.3 mph90%30.10 "Hg4 mi
6:53 PM67 °FLight rain. Overcast.No wind81%30.09 "Hg8 mi
5:53 PM69 °FLight rain. Overcast.3 mph76%30.09 "Hg9 mi
4:53 PM69 °FMostly cloudy.3 mph70%30.11 "Hg10 mi
3:53 PM69 °FPassing clouds.5 mph70%30.11 "Hg9 mi
2:53 PM69 °FPartly sunny.5 mph70%30.12 "Hg9 mi
1:53 PM69 °FPartly sunny.7 mph68%30.13 "Hg10 mi
12:53 PM72 °FSunny.6 mph64%30.14 "Hg10 mi
11:53 AM71 °FSunny.6 mph63%30.15 "Hg10 mi
10:53 AM72 °FSunny.6 mph64%30.15 "Hg10 mi
9:53 AM71 °FSunny.5 mph63%30.15 "Hg10 mi
8:53 AM68 °FSunny.5 mph70%30.15 "Hg10 mi
7:53 AM63 °FSunny.No wind84%30.16 "Hg6 mi
6:53 AM59 °FFog.No wind90%30.15 "Hg6 mi
5:53 AM59 °FClear.5 mph90%30.13 "Hg9 mi
4:53 AM60 °FClear.5 mph86%30.12 "Hg8 mi
3:53 AM60 °FClear.5 mph86%30.12 "Hg8 mi
2:53 AM59 °FPassing clouds.5 mph87%30.13 "Hg8 mi
1:53 AM58 °FClear.5 mph87%30.14 "Hg8 mi
12:53 AM58 °FClear.3 mph87%30.14 "Hg10 mi
11:53 PM
Thu, Aug 27
58 °FClear.5 mph87%30.15 "Hg10 mi
Weather by CustomWeather, © 2015

See weather overviewHow to use our weather pages